Location: Peterborough
(44.3091°N, 78.3197°W)
Time: 04:16:10
(UTC-04:00)

Tiros 1 despin weight - Pass Details

Date: 22 March 2023
Orbit: 586 x 632 km, 48.2° (Epoch: 08 June)

Event Time Altitude Azimuth Distance (km) Brightness Sun altitude
Rises 05:22:57 0° 290° (WNW) 2,864 - -20.1°
Reaches altitude 10° 05:25:23 10° 281° (W) 1,966 - -19.7°
Maximum altitude 05:29:27 34° 217° (SW) 1,026 - -19.0°
Exits shadow 05:29:47 33° 207° (SSW) 1,036 ? -18.9°
Drops below altitude 10° 05:33:34 10° 153° (SSE) 1,985 ? -18.3°
Sets 05:36:03 0° 144° (SE) 2,896 ? -17.9°
